Retour au catalogue

FENGYUN 1C DEB

ActifSSO
NORAD 30596·DEBRIS·🇨🇳 China

Lancé May 10, 1999 depuis Taiyuan Satellite Launch Center

Loading…

Prochains Passages (prochaines 24 heures)

TLE

FraisSource: Space-Track

Époque: Sep 14, 2026, 11:06 UTC

1 30596U 99025AMB 26257.46315888  .00000324  00000-0  93858-4 0  9999
2 30596  98.4265 253.5691 0246525 187.2320 327.1172 14.34929915 25138

Suivez FENGYUN 1C DEB en temps réel avec AllMySat

Download on the App Store